TimeAST,TemperatureF,Dew PointF,Humidity,Sea Level PressureIn,VisibilityMPH,Wind Direction,Wind SpeedMPH,Gust SpeedMPH,PrecipitationIn,Events,Conditions,WindDirDegrees,DateUTC
12:00 AM,82.4,75.2,79,30.06,6.2,East,12.7,-,N/A,,Partly Cloudy,90,2013-08-02 04:00:00
1:00 AM,82.4,75.2,79,30.04,6.2,East,11.5,-,N/A,,Partly Cloudy,90,2013-08-02 05:00:00
2:00 AM,82,74,72,30.05,28,East,12.7,,,,Partly Cloudy,90,2013-08-02 06:00:00
2:00 AM,82.4,75.2,79,30.04,6.2,East,12.7,-,N/A,,Partly Cloudy,90,2013-08-02 06:00:00
3:00 AM,82.4,75.2,79,30.04,6.2,East,11.5,-,N/A,,Partly Cloudy,80,2013-08-02 07:00:00
4:00 AM,82.4,75.2,79,30.04,6.2,East,10.4,-,N/A,,Partly Cloudy,100,2013-08-02 08:00:00
5:00 AM,82,75,73,30.05,28,East,12.7,,,,Scattered Clouds,90,2013-08-02 09:00:00
5:00 AM,82.4,75.2,79,30.04,6.2,East,12.7,-,N/A,,Partly Cloudy,90,2013-08-02 09:00:00
6:00 AM,82.4,75.2,79,30.06,6.2,ENE,11.5,-,N/A,,Partly Cloudy,70,2013-08-02 10:00:00
7:00 AM,82.4,73.4,74,30.06,6.2,East,12.7,-,N/A,,Partly Cloudy,80,2013-08-02 11:00:00
8:00 AM,84,73,62,30.10,25,East,15.0,,,,Scattered Clouds,80,2013-08-02 12:00:00
8:00 AM,84.2,73.4,70,30.09,6.2,East,13.8,-,N/A,,Partly Cloudy,80,2013-08-02 12:00:00
9:00 AM,86.0,73.4,66,30.09,6.2,East,15.0,-,N/A,,Partly Cloudy,80,2013-08-02 13:00:00
10:00 AM,86.0,73.4,66,30.09,6.2,East,15.0,-,N/A,,Scattered Clouds,80,2013-08-02 14:00:00
11:00 AM,87,74,56,30.10,22,East,13.8,,,,Partly Cloudy,100,2013-08-02 15:00:00
11:00 AM,87.8,73.4,62,30.09,6.2,East,16.1,-,N/A,,Scattered Clouds,80,2013-08-02 15:00:00
12:00 PM,87.8,73.4,62,30.09,6.2,East,16.1,-,N/A,,Scattered Clouds,80,2013-08-02 16:00:00
1:00 PM,87.8,73.4,62,30.06,6.2,East,16.1,-,N/A,,Mostly Cloudy,80,2013-08-02 17:00:00
2:00 PM,88,74,54,30.06,19,East,17.3,,,,Partly Cloudy,80,2013-08-02 18:00:00
2:00 PM,87.8,73.4,62,30.06,6.2,East,17.3,-,N/A,,Scattered Clouds,80,2013-08-02 18:00:00
3:00 PM,87.8,75.2,66,30.04,6.2,East,15.0,-,N/A,,Mostly Cloudy,80,2013-08-02 19:00:00
4:00 PM,86.0,73.4,66,30.04,6.2,East,12.7,-,N/A,,Scattered Clouds,90,2013-08-02 20:00:00
5:00 PM,86,75,63,30.04,25,ENE,15.0,,,,Mostly Cloudy,70,2013-08-02 21:00:00
5:00 PM,86.0,75.2,70,30.04,6.2,ENE,15.0,-,N/A,,Mostly Cloudy,70,2013-08-02 21:00:00
6:00 PM,84.2,75.2,74,30.04,6.2,ENE,15.0,-,N/A,,Scattered Clouds,70,2013-08-02 22:00:00
7:00 PM,84.2,75.2,74,30.06,6.2,East,11.5,25.3,N/A,,Scattered Clouds,80,2013-08-02 23:00:00
8:00 PM,84,75,68,30.08,22,East,13.8,,,,Mostly Cloudy,90,2013-08-03 00:00:00
8:00 PM,84.2,75.2,74,30.06,6.2,ENE,15.0,-,N/A,,Mostly Cloudy,70,2013-08-03 00:00:00
9:00 PM,84.2,75.2,74,30.09,6.2,ENE,12.7,-,N/A,,Mostly Cloudy,70,2013-08-03 01:00:00
10:00 PM,84.2,75.2,74,30.09,6.2,ENE,11.5,-,N/A,,Mostly Cloudy,70,2013-08-03 02:00:00
11:00 PM,84.2,75.2,74,30.09,6.2,ENE,10.4,-,N/A,,Mostly Cloudy,70,2013-08-03 03:00:00